GFSMW_prec_precacc6_144.txt.gz
Total_Precipitation_Accumulation
0.00 0.00 0.00 0.00 0.00 0.00 0.00 0.00 0.00 0.00 0.00 0.00 0.00 0.00 0.00 0.00 0.02 0.02 0.03 0.01 0.00 0.00 0.01 0.01 0.01 0.01 0.01 0.01 0.01 0.02 0.02 0.06 0.05 0.02 0.02 0.01 0.00 0.00 0.00 0.01 0.03 0.03 0.05
0.00 0.00 0.00 0.00 0.00 0.00 0.00 0.00 0.00 0.00 0.00 0.00 0.00 0.00 0.00 0.02 0.07 0.09 0.06 0.02 0.01 0.01 0.01 0.01 0.01 0.01 0.02 0.02 0.03 0.05 0.08 0.06 0.15 0.06 0.02 0.00 0.01 0.00 0.00 0.00 0.00 0.00 0.01
0.00 0.00 0.00 0.00 0.00 0.00 0.00 0.00 0.00 0.00 0.00 0.00 0.00 0.02 0.03 0.10 0.14 0.11 0.16 0.13 0.16 0.09 0.10 0.08 0.06 0.05 0.08 0.06 0.06 0.08 0.12 0.12 0.13 0.09 0.02 0.00 0.00 0.01 0.00 0.00 0.00 0.00 0.01
0.00 0.00 0.00 0.00 0.00 0.00 0.00 0.00 0.00 0.00 0.00 0.00 0.01 0.04 0.02 0.01 0.00 0.00 0.02 0.07 0.15 0.22 0.31 0.29 0.30 0.34 0.34 0.18 0.09 0.16 0.18 0.20 0.10 0.14 0.04 0.00 0.00 0.00 0.01 0.01 0.00 0.00 0.00
0.00 0.00 0.00 0.00 0.00 0.00 0.00 0.00 0.00 0.00 0.00 0.00 0.03 0.04 0.11 0.16 0.09 0.07 0.02 0.02 0.03 0.07 0.11 0.17 0.27 0.33 0.28 0.18 0.12 0.08 0.11 0.09 0.07 0.07 0.05 0.01 0.00 0.00 0.00 0.00 0.00 0.00 0.00
0.00 0.00 0.00 0.00 0.00 0.00 0.00 0.01 0.02 0.04 0.03 0.05 0.07 0.10 0.13 0.15 0.10 0.14 0.18 0.18 0.15 0.14 0.17 0.12 0.06 0.05 0.08 0.09 0.09 0.08 0.07 0.08 0.09 0.08 0.05 0.02 0.01 0.01 0.00 0.00 0.00 0.00 0.00
0.00 0.00 0.00 0.00 0.00 0.01 0.03 0.05 0.07 0.08 0.14 0.16 0.15 0.18 0.27 0.26 0.20 0.16 0.14 0.21 0.41 0.52 0.51 0.39 0.24 0.09 0.04 0.03 0.05 0.05 0.05 0.07 0.07 0.10 0.11 0.08 0.04 0.05 0.02 0.03 0.04 0.01 0.00
0.01 0.00 0.02 0.03 0.04 0.07 0.10 0.14 0.13 0.13 0.15 0.15 0.13 0.16 0.15 0.15 0.08 0.13 0.08 0.02 0.03 0.09 0.18 0.27 0.30 0.22 0.09 0.05 0.05 0.04 0.04 0.04 0.05 0.05 0.08 0.09 0.10 0.10 0.06 0.01 0.03 0.02 0.01
0.01 0.06 0.14 0.17 0.16 0.12 0.13 0.18 0.17 0.13 0.11 0.11 0.08 0.10 0.11 0.15 0.11 0.06 0.03 0.02 0.01 0.01 0.05 0.06 0.06 0.05 0.07 0.08 0.06 0.04 0.03 0.03 0.03 0.05 0.06 0.05 0.08 0.08 0.05 0.05 0.03 0.02 0.01
0.04 0.17 0.23 0.27 0.23 0.19 0.15 0.13 0.14 0.15 0.11 0.06 0.03 0.03 0.03 0.06 0.06 0.02 0.01 0.01 0.00 0.00 0.00 0.01 0.02 0.03 0.05 0.05 0.08 0.08 0.07 0.07 0.04 0.04 0.05 0.05 0.03 0.05 0.05 0.09 0.08 0.01 0.02
0.19 0.30 0.36 0.44 0.37 0.21 0.13 0.09 0.07 0.14 0.21 0.09 0.03 0.01 0.00 0.00 0.01 0.00 0.00 0.00 0.00 0.00 0.00 0.00 0.00 0.01 0.02 0.03 0.06 0.07 0.07 0.07 0.06 0.07 0.06 0.07 0.09 0.07 0.09 0.10 0.11 0.05 0.02
0.24 0.36 0.46 0.67 0.80 0.54 0.30 0.16 0.06 0.01 0.17 0.39 0.16 0.03 0.00 0.00 0.00 0.00 0.00 0.00 0.00 0.00 0.00 0.00 0.00 0.00 0.01 0.02 0.05 0.08 0.05 0.04 0.05 0.05 0.05 0.04 0.07 0.08 0.10 0.08 0.06 0.03 0.02
0.18 0.42 0.38 0.55 1.08 0.97 0.69 0.42 0.26 0.09 0.01 0.04 0.17 0.18 0.08 0.01 0.00 0.00 0.00 0.00 0.00 0.00 0.00 0.00 0.00 0.00 0.00 0.02 0.03 0.04 0.07 0.06 0.05 0.04 0.04 0.04 0.06 0.08 0.07 0.05 0.06 0.06 0.03
0.09 0.17 0.17 0.27 0.71 0.84 0.80 0.52 0.41 0.24 0.07 0.00 0.00 0.01 0.01 0.01 0.00 0.00 0.00 0.00 0.00 0.00 0.00 0.00 0.00 0.00 0.00 0.00 0.02 0.05 0.08 0.06 0.08 0.08 0.06 0.07 0.09 0.06 0.05 0.05 0.06 0.07 0.08
0.03 0.05 0.04 0.04 0.17 0.26 0.25 0.22 0.15 0.10 0.04 0.01 0.00 0.00 0.00 0.00 0.00 0.00 0.00 0.00 0.00 0.00 0.00 0.00 0.00 0.00 0.00 0.00 0.01 0.01 0.06 0.12 0.19 0.13 0.08 0.07 0.10 0.10 0.08 0.06 0.05 0.06 0.07
0.00 0.00 0.00 0.00 0.00 0.02 0.04 0.05 0.05 0.02 0.00 0.00 0.00 0.00 0.00 0.00 0.00 0.00 0.00 0.00 0.00 0.00 0.00 0.00 0.00 0.00 0.00 0.00 0.02 0.02 0.01 0.05 0.10 0.14 0.13 0.11 0.11 0.08 0.08 0.08 0.08 0.05 0.04
0.00 0.00 0.00 0.00 0.00 0.00 0.00 0.01 0.02 0.01 0.00 0.00 0.00 0.00 0.00 0.00 0.00 0.00 0.00 0.00 0.00 0.00 0.00 0.00 0.00 0.00 0.00 0.00 0.00 0.02 0.01 0.02 0.07 0.12 0.10 0.19 0.25 0.14 0.08 0.10 0.08 0.08 0.06
0.00 0.00 0.00 0.00 0.00 0.00 0.00 0.00 0.00 0.01 0.01 0.01 0.00 0.00 0.00 0.00 0.00 0.00 0.00 0.00 0.00 0.00 0.00 0.00 0.00 0.00 0.00 0.00 0.00 0.00 0.00 0.02 0.04 0.09 0.24 0.35 0.35 0.29 0.16 0.09 0.08 0.03 0.02
0.00 0.00 0.00 0.00 0.00 0.00 0.00 0.00 0.00 0.00 0.00 0.00 0.00 0.00 0.00 0.00 0.00 0.00 0.00 0.00 0.00 0.00 0.00 0.00 0.00 0.00 0.00 0.00 0.00 0.00 0.00 0.02 0.02 0.04 0.15 0.20 0.36 0.46 0.42 0.27 0.16 0.07 0.03
0.00 0.00 0.00 0.00 0.00 0.00 0.00 0.00 0.00 0.00 0.00 0.00 0.00 0.00 0.00 0.00 0.00 0.00 0.00 0.00 0.00 0.00 0.00 0.00 0.00 0.00 0.00 0.00 0.00 0.00 0.00 0.00 0.01 0.01 0.05 0.12 0.10 0.17 0.18 0.13 0.10 0.08 0.03
0.00 0.00 0.00 0.00 0.00 0.00 0.00 0.00 0.00 0.00 0.00 0.00 0.00 0.00 0.00 0.00 0.00 0.00 0.00 0.00 0.00 0.00 0.00 0.00 0.00 0.00 0.00 0.00 0.00 0.00 0.00 0.00 0.01 0.02 0.01 0.03 0.09 0.09 0.14 0.16 0.07 0.02 0.02
0.00 0.00 0.00 0.00 0.00 0.00 0.00 0.00 0.00 0.00 0.00 0.00 0.00 0.00 0.00 0.00 0.00 0.00 0.00 0.00 0.00 0.00 0.00 0.00 0.00 0.00 0.00 0.00 0.00 0.00 0.00 0.01 0.01 0.05 0.12 0.11 0.11 0.07 0.10 0.13 0.15 0.09 0.03
0.00 0.00 0.00 0.00 0.00 0.00 0.00 0.00 0.00 0.00 0.00 0.00 0.00 0.00 0.00 0.00 0.00 0.00 0.00 0.00 0.00 0.00 0.00 0.00 0.00 0.00 0.00 0.00 0.00 0.00 0.00 0.01 0.01 0.02 0.10 0.26 0.29 0.21 0.13 0.13 0.17 0.18 0.13
0.00 0.00 0.00 0.00 0.00 0.00 0.00 0.00 0.00 0.00 0.00 0.00 0.00 0.00 0.00 0.00 0.00 0.00 0.00 0.00 0.01 0.01 0.01 0.01 0.01 0.00 0.00 0.00 0.00 0.00 0.00 0.01 0.01 0.03 0.06 0.09 0.10 0.18 0.25 0.27 0.22 0.15 0.13
0.00 0.00 0.00 0.00 0.00 0.00 0.00 0.00 0.00 0.00 0.00 0.00 0.00 0.00 0.00 0.00 0.00 0.00 0.00 0.00 0.01 0.03 0.04 0.03 0.02 0.02 0.02 0.01 0.00 0.00 0.00 0.00 0.02 0.03 0.05 0.08 0.10 0.09 0.13 0.14 0.12 0.11 0.13
0.00 0.00 0.00 0.00 0.00 0.00 0.00 0.00 0.00 0.00 0.00 0.00 0.00 0.00 0.00 0.00 0.00 0.00 0.00 0.00 0.00 0.00 0.00 0.01 0.02 0.02 0.02 0.01 0.01 0.01 0.01 0.01 0.03 0.02 0.03 0.05 0.11 0.14 0.12 0.14 0.16 0.12 0.08

GFSMW_prec_precacc6_147.txt.gz
Total_Precipitation_Accumulation
0.00 0.00 0.00 0.00 0.00 0.00 0.00 0.00 0.00 0.00 0.00 0.00 0.00 0.00 0.00 0.00 0.00 0.00 0.00 0.00 0.00 0.00 0.01 0.01 0.01 0.01 0.01 0.01 0.01 0.01 0.01 0.01 0.01 0.01 0.03 0.02 0.01 0.01 0.00 0.01 0.01 0.01 0.03
0.00 0.00 0.00 0.00 0.00 0.00 0.00 0.00 0.00 0.00 0.00 0.00 0.00 0.00 0.00 0.00 0.00 0.00 0.01 0.01 0.00 0.00 0.01 0.01 0.01 0.01 0.02 0.02 0.05 0.03 0.03 0.03 0.06 0.03 0.06 0.02 0.01 0.01 0.01 0.00 0.00 0.00 0.00
0.00 0.00 0.00 0.00 0.00 0.00 0.00 0.00 0.00 0.00 0.00 0.00 0.00 0.00 0.00 0.00 0.00 0.01 0.01 0.00 0.00 0.01 0.04 0.05 0.06 0.04 0.05 0.07 0.07 0.07 0.07 0.07 0.10 0.06 0.02 0.01 0.00 0.01 0.01 0.00 0.00 0.00 0.00
0.00 0.00 0.00 0.00 0.00 0.00 0.00 0.00 0.00 0.00 0.00 0.00 0.00 0.00 0.00 0.00 0.00 0.00 0.00 0.01 0.00 0.01 0.06 0.11 0.19 0.28 0.30 0.26 0.19 0.16 0.14 0.19 0.15 0.18 0.09 0.05 0.02 0.04 0.03 0.01 0.01 0.01 0.01
0.00 0.00 0.00 0.00 0.00 0.00 0.00 0.00 0.00 0.00 0.00 0.00 0.00 0.00 0.01 0.01 0.01 0.02 0.01 0.02 0.02 0.02 0.02 0.03 0.15 0.34 0.25 0.16 0.18 0.20 0.20 0.18 0.20 0.16 0.06 0.03 0.05 0.05 0.03 0.04 0.02 0.01 0.02
0.00 0.00 0.00 0.00 0.00 0.00 0.00 0.00 0.00 0.01 0.00 0.00 0.01 0.02 0.05 0.07 0.07 0.05 0.05 0.10 0.14 0.15 0.22 0.20 0.16 0.14 0.12 0.10 0.11 0.09 0.09 0.07 0.08 0.08 0.09 0.05 0.03 0.02 0.02 0.05 0.05 0.01 0.00
0.00 0.00 0.00 0.00 0.00 0.01 0.02 0.02 0.02 0.01 0.02 0.02 0.02 0.07 0.20 0.22 0.15 0.12 0.14 0.23 0.42 0.54 0.68 0.57 0.47 0.36 0.40 0.42 0.25 0.08 0.05 0.07 0.07 0.06 0.04 0.04 0.05 0.10 0.10 0.10 0.12 0.08 0.02
0.01 0.00 0.00 0.01 0.03 0.04 0.05 0.06 0.06 0.05 0.05 0.07 0.09 0.14 0.16 0.19 0.15 0.09 0.12 0.15 0.16 0.23 0.40 0.50 0.51 0.63 0.65 0.61 0.48 0.08 0.04 0.05 0.05 0.07 0.06 0.04 0.05 0.09 0.13 0.10 0.13 0.13 0.08
0.01 0.00 0.02 0.09 0.10 0.07 0.07 0.08 0.10 0.08 0.07 0.08 0.09 0.13 0.19 0.27 0.22 0.16 0.09 0.09 0.07 0.06 0.11 0.16 0.14 0.15 0.27 0.24 0.20 0.18 0.11 0.08 0.04 0.04 0.04 0.04 0.04 0.05 0.06 0.11 0.12 0.16 0.10
0.01 0.03 0.06 0.10 0.13 0.13 0.12 0.08 0.07 0.12 0.12 0.09 0.08 0.08 0.10 0.14 0.15 0.15 0.09 0.07 0.05 0.04 0.02 0.04 0.05 0.06 0.05 0.06 0.11 0.14 0.15 0.16 0.09 0.07 0.07 0.03 0.04 0.04 0.04 0.10 0.10 0.10 0.12
0.06 0.08 0.10 0.18 0.18 0.15 0.12 0.11 0.10 0.14 0.24 0.17 0.16 0.15 0.12 0.11 0.07 0.06 0.04 0.02 0.02 0.02 0.01 0.01 0.00 0.01 0.01 0.05 0.08 0.09 0.09 0.14 0.13 0.17 0.13 0.08 0.05 0.06 0.06 0.09 0.12 0.08 0.08
0.06 0.05 0.08 0.11 0.13 0.16 0.21 0.17 0.11 0.08 0.24 0.54 0.37 0.24 0.20 0.12 0.08 0.03 0.02 0.01 0.01 0.00 0.00 0.00 0.00 0.00 0.00 0.01 0.03 0.07 0.07 0.07 0.08 0.10 0.16 0.10 0.12 0.10 0.10 0.10 0.08 0.06 0.06
0.02 0.04 0.04 0.06 0.09 0.15 0.23 0.30 0.26 0.17 0.10 0.14 0.45 0.47 0.44 0.22 0.05 0.01 0.01 0.00 0.00 0.00 0.00 0.00 0.00 0.00 0.00 0.00 0.00 0.01 0.03 0.06 0.08 0.08 0.09 0.05 0.13 0.14 0.10 0.10 0.10 0.11 0.08
0.00 0.01 0.02 0.03 0.05 0.15 0.22 0.24 0.30 0.31 0.19 0.11 0.10 0.14 0.24 0.36 0.26 0.06 0.00 0.00 0.00 0.00 0.00 0.00 0.00 0.00 0.00 0.00 0.00 0.01 0.02 0.03 0.06 0.08 0.09 0.08 0.12 0.10 0.08 0.06 0.07 0.10 0.12
0.00 0.00 0.00 0.00 0.00 0.04 0.12 0.13 0.12 0.15 0.15 0.07 0.05 0.02 0.03 0.04 0.06 0.14 0.07 0.03 0.01 0.00 0.00 0.00 0.00 0.00 0.00 0.00 0.00 0.00 0.01 0.02 0.06 0.08 0.08 0.09 0.17 0.16 0.16 0.11 0.08 0.10 0.10
0.00 0.00 0.00 0.00 0.00 0.00 0.01 0.04 0.05 0.04 0.03 0.02 0.00 0.00 0.00 0.00 0.00 0.00 0.00 0.01 0.01 0.00 0.00 0.00 0.00 0.00 0.00 0.00 0.00 0.00 0.00 0.00 0.01 0.04 0.11 0.12 0.15 0.14 0.17 0.20 0.19 0.14 0.11
0.00 0.00 0.00 0.00 0.00 0.00 0.00 0.00 0.02 0.01 0.00 0.00 0.00 0.00 0.00 0.00 0.00 0.00 0.00 0.00 0.00 0.00 0.00 0.00 0.00 0.00 0.00 0.00 0.00 0.00 0.00 0.00 0.00 0.01 0.04 0.18 0.25 0.17 0.10 0.15 0.28 0.41 0.33
0.00 0.00 0.00 0.00 0.00 0.00 0.00 0.00 0.00 0.01 0.01 0.01 0.00 0.00 0.00 0.00 0.00 0.00 0.00 0.00 0.00 0.00 0.00 0.00 0.00 0.00 0.00 0.00 0.00 0.00 0.00 0.00 0.00 0.00 0.02 0.05 0.14 0.26 0.16 0.10 0.12 0.13 0.18
0.00 0.00 0.00 0.00 0.00 0.00 0.00 0.00 0.00 0.00 0.00 0.00 0.00 0.00 0.00 0.00 0.00 0.00 0.00 0.00 0.00 0.00 0.00 0.00 0.00 0.00 0.00 0.00 0.00 0.00 0.00 0.00 0.00 0.00 0.01 0.02 0.07 0.29 0.41 0.30 0.27 0.31 0.27
0.00 0.00 0.00 0.00 0.00 0.00 0.00 0.00 0.00 0.00 0.00 0.00 0.00 0.00 0.00 0.00 0.00 0.00 0.00 0.00 0.00 0.00 0.00 0.00 0.00 0.00 0.00 0.00 0.00 0.00 0.00 0.00 0.00 0.00 0.01 0.03 0.04 0.08 0.15 0.14 0.10 0.12 0.18
0.00 0.00 0.00 0.00 0.00 0.00 0.00 0.00 0.00 0.00 0.00 0.00 0.00 0.00 0.00 0.00 0.00 0.00 0.00 0.00 0.00 0.00 0.00 0.00 0.00 0.00 0.00 0.00 0.00 0.00 0.00 0.00 0.00 0.00 0.00 0.01 0.05 0.05 0.12 0.16 0.08 0.04 0.04
0.00 0.00 0.00 0.00 0.00 0.00 0.00 0.00 0.00 0.00 0.00 0.00 0.00 0.00 0.00 0.00 0.00 0.00 0.00 0.00 0.00 0.00 0.00 0.00 0.00 0.00 0.00 0.00 0.00 0.00 0.00 0.00 0.00 0.00 0.00 0.01 0.04 0.03 0.07 0.11 0.14 0.13 0.08
0.00 0.00 0.00 0.00 0.00 0.00 0.00 0.00 0.00 0.00 0.00 0.00 0.00 0.00 0.00 0.00 0.00 0.00 0.00 0.00 0.00 0.00 0.00 0.00 0.00 0.00 0.00 0.01 0.00 0.00 0.00 0.00 0.00 0.00 0.00 0.01 0.02 0.02 0.02 0.08 0.15 0.19 0.15
0.00 0.00 0.00 0.00 0.00 0.00 0.00 0.00 0.00 0.00 0.00 0.00 0.00 0.00 0.00 0.00 0.00 0.00 0.00 0.00 0.01 0.01 0.01 0.01 0.01 0.01 0.01 0.01 0.01 0.01 0.01 0.01 0.00 0.00 0.00 0.00 0.01 0.02 0.05 0.17 0.21 0.15 0.15
0.00 0.00 0.00 0.00 0.00 0.00 0.00 0.00 0.00 0.00 0.00 0.00 0.01 0.01 0.01 0.01 0.01 0.01 0.01 0.01 0.01 0.01 0.02 0.02 0.02 0.03 0.03 0.02 0.01 0.01 0.01 0.01 0.00 0.00 0.00 0.01 0.00 0.02 0.08 0.12 0.12 0.11 0.13
0.00 0.00 0.00 0.00 0.00 0.00 0.00 0.00 0.00 0.00 0.00 0.00 0.00 0.00 0.00 0.01 0.01 0.01 0.00 0.00 0.00 0.00 0.00 0.00 0.01 0.01 0.02 0.01 0.01 0.00 0.00 0.00 0.00 0.00 0.00 0.01 0.02 0.03 0.04 0.09 0.16 0.14 0.11

GFSMW_prec_precacc6_150.txt.gz
Total_Precipitation_Accumulation
0.00 0.00 0.00 0.00 0.00 0.00 0.00 0.00 0.00 0.00 0.00 0.00 0.00 0.00 0.00 0.00 0.00 0.00 0.00 0.00 0.01 0.02 0.01 0.00 0.00 0.01 0.01 0.00 0.02 0.00 0.01 0.00 0.00 0.01 0.09 0.07 0.02 0.01 0.00 0.01 0.00 0.00 0.00
0.00 0.00 0.00 0.00 0.00 0.00 0.00 0.00 0.00 0.00 0.00 0.00 0.00 0.00 0.00 0.00 0.00 0.00 0.00 0.00 0.00 0.11 0.06 0.01 0.01 0.01 0.01 0.02 0.05 0.03 0.01 0.02 0.01 0.02 0.10 0.06 0.02 0.01 0.00 0.00 0.01 0.01 0.00
0.00 0.00 0.00 0.00 0.00 0.00 0.00 0.00 0.00 0.00 0.00 0.00 0.00 0.00 0.00 0.00 0.00 0.00 0.00 0.00 0.00 0.01 0.13 0.02 0.04 0.02 0.03 0.03 0.03 0.03 0.04 0.03 0.05 0.04 0.04 0.01 0.01 0.01 0.00 0.01 0.01 0.01 0.01
0.00 0.00 0.00 0.00 0.00 0.00 0.00 0.00 0.00 0.00 0.00 0.00 0.00 0.00 0.00 0.00 0.00 0.00 0.00 0.00 0.00 0.01 0.05 0.09 0.05 0.04 0.05 0.17 0.20 0.13 0.10 0.13 0.13 0.17 0.16 0.12 0.09 0.09 0.07 0.02 0.00 0.00 0.01
0.00 0.00 0.00 0.00 0.00 0.00 0.00 0.00 0.00 0.00 0.00 0.00 0.00 0.00 0.00 0.00 0.00 0.00 0.00 0.00 0.01 0.02 0.04 0.12 0.10 0.14 0.15 0.15 0.29 0.25 0.23 0.29 0.34 0.30 0.25 0.18 0.17 0.21 0.22 0.14 0.06 0.02 0.02
0.00 0.00 0.00 0.00 0.00 0.00 0.00 0.00 0.00 0.00 0.00 0.00 0.00 0.00 0.00 0.00 0.01 0.01 0.02 0.02 0.03 0.05 0.09 0.14 0.18 0.23 0.24 0.21 0.23 0.18 0.14 0.28 0.28 0.24 0.18 0.09 0.06 0.06 0.10 0.15 0.15 0.08 0.05
0.00 0.00 0.00 0.00 0.00 0.00 0.00 0.00 0.00 0.00 0.01 0.01 0.01 0.01 0.02 0.04 0.07 0.07 0.10 0.13 0.16 0.15 0.24 0.26 0.34 0.39 0.57 0.72 0.69 0.49 0.38 0.33 0.29 0.21 0.12 0.06 0.07 0.12 0.17 0.22 0.24 0.19 0.08
0.00 0.00 0.00 0.00 0.00 0.00 0.00 0.01 0.01 0.01 0.00 0.01 0.03 0.05 0.03 0.05 0.09 0.09 0.12 0.16 0.19 0.21 0.33 0.33 0.30 0.56 0.87 0.94 1.12 0.98 0.72 0.62 0.29 0.17 0.11 0.07 0.04 0.07 0.15 0.22 0.29 0.32 0.26
0.00 0.00 0.00 0.00 0.00 0.00 0.01 0.02 0.03 0.02 0.02 0.02 0.02 0.04 0.09 0.13 0.12 0.13 0.12 0.12 0.12 0.09 0.13 0.22 0.21 0.29 0.42 0.58 0.71 0.68 0.49 0.42 0.32 0.15 0.11 0.08 0.03 0.07 0.10 0.13 0.20 0.32 0.46
0.00 0.00 0.00 0.00 0.00 0.00 0.01 0.02 0.03 0.05 0.05 0.05 0.06 0.08 0.11 0.13 0.13 0.15 0.14 0.15 0.14 0.12 0.11 0.09 0.11 0.15 0.18 0.20 0.21 0.21 0.18 0.16 0.11 0.12 0.14 0.09 0.05 0.06 0.07 0.09 0.12 0.21 0.26
0.00 0.00 0.00 0.00 0.00 0.00 0.02 0.03 0.04 0.06 0.06 0.12 0.17 0.15 0.15 0.16 0.16 0.16 0.12 0.11 0.12 0.16 0.13 0.09 0.06 0.06 0.08 0.12 0.12 0.10 0.09 0.12 0.12 0.18 0.18 0.13 0.13 0.10 0.10 0.09 0.09 0.10 0.17
0.00 0.00 0.00 0.00 0.00 0.00 0.01 0.03 0.05 0.07 0.08 0.16 0.27 0.28 0.26 0.24 0.18 0.19 0.20 0.17 0.13 0.14 0.11 0.06 0.03 0.03 0.05 0.06 0.07 0.09 0.10 0.10 0.09 0.10 0.16 0.12 0.19 0.17 0.14 0.13 0.11 0.09 0.09
0.00 0.00 0.00 0.00 0.00 0.00 0.01 0.02 0.07 0.10 0.10 0.11 0.32 0.38 0.45 0.33 0.28 0.25 0.20 0.25 0.19 0.09 0.07 0.04 0.02 0.01 0.01 0.00 0.00 0.01 0.02 0.03 0.05 0.06 0.09 0.07 0.18 0.19 0.16 0.18 0.14 0.14 0.12
0.00 0.00 0.00 0.00 0.00 0.00 0.00 0.01 0.05 0.14 0.16 0.13 0.14 0.20 0.31 0.47 0.51 0.36 0.25 0.19 0.15 0.05 0.02 0.01 0.01 0.00 0.00 0.00 0.00 0.00 0.00 0.00 0.00 0.02 0.05 0.07 0.14 0.16 0.14 0.15 0.17 0.22 0.29
0.00 0.00 0.00 0.00 0.00 0.00 0.00 0.00 0.02 0.07 0.14 0.10 0.10 0.08 0.07 0.10 0.17 0.36 0.42 0.29 0.12 0.02 0.00 0.00 0.00 0.00 0.00 0.00 0.00 0.00 0.00 0.00 0.00 0.00 0.02 0.04 0.11 0.16 0.18 0.17 0.14 0.14 0.20
0.00 0.00 0.00 0.00 0.00 0.00 0.00 0.00 0.00 0.02 0.03 0.04 0.04 0.03 0.01 0.00 0.00 0.02 0.07 0.20 0.23 0.12 0.03 0.00 0.00 0.00 0.00 0.00 0.00 0.00 0.00 0.00 0.00 0.00 0.00 0.02 0.05 0.07 0.12 0.19 0.22 0.23 0.20
0.00 0.00 0.00 0.00 0.00 0.00 0.00 0.00 0.00 0.00 0.00 0.00 0.01 0.01 0.01 0.00 0.00 0.00 0.00 0.00 0.01 0.05 0.07 0.04 0.01 0.00 0.00 0.00 0.00 0.00 0.00 0.00 0.00 0.00 0.00 0.00 0.01 0.04 0.03 0.08 0.25 0.43 0.47
0.00 0.00 0.00 0.00 0.00 0.00 0.00 0.00 0.00 0.00 0.00 0.00 0.00 0.00 0.00 0.00 0.00 0.00 0.00 0.00 0.00 0.00 0.00 0.00 0.00 0.00 0.00 0.00 0.00 0.00 0.00 0.00 0.00 0.00 0.00 0.00 0.00 0.01 0.01 0.01 0.05 0.12 0.20
0.00 0.00 0.00 0.00 0.00 0.00 0.00 0.00 0.00 0.00 0.00 0.00 0.00 0.00 0.00 0.00 0.00 0.00 0.00 0.00 0.00 0.00 0.00 0.00 0.00 0.00 0.00 0.00 0.00 0.00 0.00 0.00 0.00 0.00 0.00 0.00 0.00 0.02 0.02 0.04 0.11 0.25 0.25
0.00 0.00 0.00 0.00 0.00 0.00 0.00 0.00 0.00 0.00 0.00 0.00 0.00 0.00 0.00 0.00 0.00 0.00 0.00 0.00 0.00 0.00 0.00 0.00 0.00 0.00 0.00 0.00 0.00 0.00 0.00 0.00 0.00 0.00 0.00 0.00 0.00 0.01 0.01 0.01 0.01 0.05 0.16
0.00 0.00 0.00 0.00 0.00 0.00 0.00 0.00 0.00 0.00 0.00 0.00 0.00 0.00 0.00 0.00 0.00 0.00 0.00 0.00 0.00 0.00 0.00 0.00 0.00 0.00 0.00 0.00 0.00 0.00 0.00 0.00 0.00 0.00 0.00 0.00 0.01 0.00 0.00 0.01 0.02 0.03 0.03
0.00 0.00 0.00 0.00 0.00 0.00 0.00 0.00 0.00 0.00 0.00 0.00 0.00 0.00 0.00 0.00 0.00 0.00 0.00 0.00 0.00 0.00 0.00 0.00 0.00 0.00 0.00 0.00 0.00 0.00 0.00 0.00 0.00 0.00 0.00 0.00 0.00 0.00 0.00 0.00 0.02 0.06 0.07
0.00 0.00 0.00 0.00 0.00 0.00 0.00 0.00 0.00 0.00 0.00 0.00 0.00 0.00 0.00 0.00 0.00 0.00 0.00 0.00 0.00 0.00 0.00 0.00 0.00 0.00 0.00 0.00 0.00 0.00 0.00 0.00 0.00 0.00 0.00 0.00 0.00 0.00 0.00 0.00 0.00 0.02 0.02
0.00 0.00 0.00 0.00 0.00 0.00 0.00 0.00 0.00 0.00 0.00 0.00 0.00 0.01 0.01 0.00 0.00 0.01 0.01 0.01 0.01 0.01 0.01 0.01 0.01 0.01 0.01 0.01 0.01 0.01 0.01 0.00 0.00 0.00 0.00 0.00 0.00 0.00 0.00 0.00 0.00 0.00 0.02
0.00 0.00 0.00 0.00 0.00 0.00 0.00 0.00 0.00 0.00 0.00 0.00 0.01 0.01 0.01 0.01 0.01 0.01 0.01 0.01 0.01 0.01 0.02 0.02 0.02 0.02 0.02 0.01 0.00 0.01 0.01 0.01 0.00 0.00 0.00 0.00 0.00 0.00 0.00 0.00 0.00 0.00 0.00
0.00 0.00 0.00 0.00 0.00 0.00 0.00 0.00 0.00 0.00 0.01 0.01 0.01 0.01 0.01 0.01 0.01 0.01 0.01 0.01 0.01 0.00 0.00 0.01 0.01 0.01 0.01 0.00 0.00 0.00 0.00 0.00 0.00 0.00 0.01 0.01 0.01 0.00 0.00 0.00 0.01 0.02 0.03

GFSMW_prec_precacc6_153.txt.gz
Total_Precipitation_Accumulation
0.00 0.00 0.00 0.00 0.00 0.00 0.00 0.00 0.00 0.00 0.00 0.00 0.00 0.00 0.00 0.01 0.16 0.34 0.13 0.06 0.13 0.19 0.09 0.02 0.02 0.05 0.01 0.00 0.17 0.10 0.03 0.01 0.00 0.06 0.11 0.08 0.01 0.00 0.00 0.00 0.00 0.00 0.00
0.00 0.00 0.00 0.00 0.00 0.00 0.00 0.00 0.00 0.00 0.00 0.00 0.00 0.00 0.00 0.00 0.00 0.00 0.03 0.07 0.11 0.42 0.26 0.14 0.09 0.06 0.02 0.05 0.28 0.22 0.13 0.04 0.04 0.08 0.21 0.13 0.05 0.00 0.00 0.00 0.01 0.01 0.00
0.00 0.00 0.00 0.00 0.00 0.00 0.00 0.00 0.00 0.00 0.00 0.00 0.00 0.00 0.00 0.00 0.00 0.00 0.00 0.02 0.05 0.09 0.38 0.11 0.23 0.31 0.26 0.17 0.26 0.32 0.19 0.11 0.09 0.13 0.10 0.09 0.04 0.02 0.01 0.02 0.01 0.01 0.01
0.00 0.00 0.00 0.00 0.00 0.00 0.00 0.00 0.00 0.00 0.00 0.00 0.00 0.00 0.00 0.00 0.00 0.00 0.00 0.00 0.02 0.05 0.21 0.34 0.17 0.15 0.24 0.31 0.24 0.21 0.18 0.18 0.19 0.30 0.25 0.19 0.10 0.08 0.07 0.08 0.04 0.01 0.01
0.00 0.00 0.00 0.00 0.00 0.00 0.00 0.00 0.00 0.00 0.00 0.00 0.00 0.00 0.00 0.00 0.00 0.00 0.00 0.00 0.00 0.01 0.06 0.30 0.19 0.13 0.29 0.34 0.42 0.36 0.33 0.32 0.33 0.37 0.53 0.50 0.38 0.35 0.32 0.22 0.12 0.07 0.03
0.00 0.00 0.00 0.00 0.00 0.00 0.00 0.00 0.00 0.00 0.00 0.00 0.00 0.00 0.00 0.00 0.00 0.00 0.00 0.00 0.01 0.03 0.08 0.18 0.21 0.27 0.35 0.37 0.55 0.47 0.43 0.66 0.77 0.64 0.51 0.47 0.49 0.37 0.31 0.23 0.15 0.10 0.08
0.00 0.00 0.00 0.00 0.00 0.00 0.00 0.00 0.00 0.00 0.00 0.00 0.00 0.00 0.00 0.00 0.00 0.00 0.01 0.02 0.06 0.09 0.07 0.13 0.24 0.26 0.33 0.55 0.66 0.76 0.65 0.64 0.64 0.52 0.34 0.21 0.16 0.21 0.24 0.19 0.19 0.20 0.12
0.00 0.00 0.00 0.00 0.00 0.00 0.00 0.00 0.00 0.00 0.00 0.00 0.00 0.00 0.00 0.00 0.00 0.01 0.02 0.03 0.06 0.07 0.12 0.12 0.18 0.27 0.41 0.55 0.86 1.12 0.91 0.79 0.47 0.37 0.38 0.34 0.26 0.22 0.24 0.27 0.32 0.38 0.36
0.00 0.00 0.00 0.00 0.00 0.00 0.00 0.00 0.00 0.00 0.00 0.00 0.00 0.00 0.00 0.00 0.01 0.02 0.06 0.07 0.08 0.05 0.08 0.16 0.18 0.25 0.30 0.53 0.73 0.70 0.51 0.46 0.43 0.32 0.27 0.23 0.13 0.14 0.17 0.17 0.20 0.26 0.42
0.00 0.00 0.00 0.00 0.00 0.00 0.00 0.00 0.00 0.00 0.00 0.00 0.00 0.02 0.04 0.05 0.04 0.04 0.08 0.12 0.12 0.10 0.13 0.08 0.11 0.16 0.21 0.24 0.21 0.20 0.18 0.14 0.10 0.11 0.14 0.13 0.10 0.12 0.13 0.15 0.15 0.18 0.17
0.00 0.00 0.00 0.00 0.00 0.00 0.00 0.00 0.00 0.00 0.00 0.02 0.03 0.02 0.03 0.07 0.13 0.14 0.14 0.15 0.14 0.17 0.16 0.14 0.12 0.13 0.15 0.17 0.14 0.15 0.19 0.18 0.11 0.08 0.11 0.12 0.19 0.18 0.18 0.16 0.13 0.12 0.17
0.00 0.00 0.00 0.00 0.00 0.00 0.00 0.00 0.00 0.00 0.00 0.01 0.06 0.08 0.08 0.15 0.16 0.22 0.24 0.21 0.20 0.20 0.19 0.18 0.17 0.21 0.21 0.19 0.18 0.12 0.11 0.12 0.10 0.09 0.09 0.10 0.17 0.18 0.20 0.28 0.25 0.22 0.16
0.00 0.00 0.00 0.00 0.00 0.00 0.00 0.00 0.00 0.00 0.01 0.01 0.04 0.09 0.11 0.16 0.30 0.34 0.30 0.34 0.29 0.24 0.27 0.26 0.22 0.19 0.20 0.09 0.14 0.12 0.04 0.04 0.04 0.06 0.08 0.08 0.13 0.14 0.17 0.23 0.19 0.20 0.17
0.00 0.00 0.00 0.00 0.00 0.00 0.00 0.00 0.00 0.01 0.01 0.02 0.06 0.08 0.10 0.14 0.31 0.42 0.40 0.31 0.31 0.33 0.27 0.31 0.34 0.22 0.15 0.07 0.05 0.07 0.03 0.01 0.01 0.02 0.02 0.03 0.06 0.09 0.13 0.18 0.20 0.22 0.29
0.00 0.00 0.00 0.00 0.00 0.00 0.00 0.00 0.00 0.00 0.02 0.04 0.05 0.07 0.06 0.07 0.15 0.31 0.52 0.46 0.29 0.21 0.24 0.22 0.22 0.19 0.17 0.07 0.03 0.01 0.01 0.00 0.00 0.00 0.00 0.00 0.01 0.06 0.09 0.12 0.11 0.13 0.20
0.00 0.00 0.00 0.00 0.00 0.00 0.00 0.00 0.00 0.00 0.00 0.02 0.04 0.03 0.03 0.03 0.03 0.04 0.10 0.27 0.40 0.34 0.15 0.10 0.09 0.07 0.07 0.04 0.02 0.01 0.00 0.00 0.00 0.00 0.00 0.00 0.00 0.00 0.02 0.06 0.10 0.15 0.17
0.00 0.00 0.00 0.00 0.00 0.00 0.00 0.00 0.00 0.00 0.00 0.00 0.01 0.01 0.01 0.03 0.02 0.03 0.02 0.01 0.02 0.10 0.18 0.16 0.09 0.01 0.02 0.02 0.01 0.01 0.00 0.00 0.00 0.00 0.00 0.00 0.00 0.00 0.00 0.03 0.04 0.08 0.19
0.00 0.00 0.00 0.00 0.00 0.00 0.00 0.00 0.00 0.00 0.00 0.00 0.00 0.00 0.00 0.00 0.00 0.00 0.00 0.00 0.00 0.00 0.00 0.02 0.07 0.06 0.03 0.01 0.00 0.00 0.00 0.00 0.00 0.00 0.00 0.00 0.00 0.00 0.00 0.00 0.01 0.01 0.04
0.00 0.00 0.00 0.00 0.00 0.00 0.00 0.00 0.00 0.00 0.00 0.00 0.00 0.00 0.00 0.00 0.00 0.00 0.00 0.00 0.00 0.00 0.00 0.00 0.00 0.01 0.02 0.02 0.00 0.00 0.00 0.00 0.00 0.00 0.00 0.00 0.00 0.01 0.01 0.00 0.00 0.01 0.00
0.00 0.00 0.00 0.00 0.00 0.00 0.00 0.00 0.00 0.00 0.00 0.00 0.00 0.00 0.00 0.00 0.00 0.00 0.00 0.00 0.00 0.00 0.00 0.00 0.00 0.00 0.00 0.01 0.01 0.00 0.00 0.00 0.00 0.00 0.00 0.01 0.00 0.01 0.00 0.00 0.00 0.00 0.00
0.00 0.00 0.00 0.00 0.00 0.00 0.00 0.00 0.00 0.00 0.00 0.00 0.00 0.00 0.00 0.00 0.00 0.00 0.00 0.00 0.00 0.00 0.00 0.00 0.00 0.00 0.00 0.00 0.00 0.00 0.00 0.00 0.00 0.00 0.00 0.00 0.01 0.00 0.00 0.00 0.00 0.00 0.00
0.00 0.00 0.00 0.00 0.00 0.00 0.00 0.00 0.00 0.00 0.00 0.00 0.00 0.00 0.00 0.00 0.00 0.00 0.00 0.00 0.00 0.00 0.00 0.00 0.00 0.00 0.00 0.00 0.00 0.00 0.00 0.00 0.00 0.00 0.00 0.00 0.00 0.00 0.00 0.00 0.00 0.00 0.00
0.00 0.00 0.00 0.00 0.00 0.00 0.00 0.00 0.00 0.00 0.00 0.00 0.00 0.00 0.00 0.00 0.00 0.00 0.00 0.00 0.00 0.00 0.00 0.00 0.00 0.00 0.00 0.00 0.00 0.00 0.00 0.00 0.00 0.00 0.00 0.00 0.00 0.00 0.00 0.00 0.00 0.00 0.00
0.00 0.00 0.00 0.00 0.00 0.00 0.00 0.00 0.00 0.00 0.00 0.00 0.00 0.01 0.01 0.00 0.00 0.00 0.00 0.01 0.01 0.01 0.01 0.01 0.01 0.01 0.00 0.00 0.00 0.00 0.00 0.00 0.00 0.00 0.00 0.00 0.00 0.00 0.00 0.00 0.00 0.00 0.00
0.00 0.00 0.00 0.00 0.00 0.00 0.00 0.00 0.00 0.00 0.00 0.00 0.00 0.00 0.01 0.00 0.00 0.00 0.00 0.01 0.01 0.01 0.02 0.03 0.02 0.02 0.01 0.00 0.00 0.00 0.00 0.00 0.00 0.00 0.00 0.00 0.00 0.00 0.00 0.00 0.00 0.00 0.00
0.00 0.00 0.00 0.00 0.00 0.00 0.00 0.00 0.00 0.00 0.01 0.01 0.01 0.02 0.01 0.01 0.01 0.01 0.00 0.00 0.01 0.01 0.01 0.01 0.01 0.01 0.00 0.00 0.01 0.00 0.00 0.00 0.00 0.00 0.00 0.01 0.01 0.00 0.00 0.00 0.00 0.00 0.00

GFSMW_prec_precacc6_156.txt.gz
Total_Precipitation_Accumulation
0.00 0.00 0.00 0.00 0.00 0.00 0.00 0.00 0.00 0.00 0.00 0.00 0.00 0.00 0.00 0.01 0.16 0.34 0.13 0.06 0.13 0.18 0.14 0.08 0.06 0.12 0.09 0.08 0.22 0.25 0.21 0.07 0.04 0.16 0.14 0.09 0.04 0.02 0.00 0.00 0.00 0.00 0.00
0.00 0.00 0.00 0.00 0.00 0.00 0.00 0.00 0.00 0.00 0.00 0.00 0.00 0.00 0.00 0.00 0.00 0.00 0.03 0.07 0.11 0.37 0.31 0.29 0.24 0.19 0.10 0.16 0.39 0.35 0.42 0.22 0.16 0.34 0.46 0.26 0.16 0.04 0.07 0.07 0.02 0.00 0.00
0.00 0.00 0.00 0.00 0.00 0.00 0.00 0.00 0.00 0.00 0.00 0.00 0.00 0.00 0.00 0.00 0.00 0.00 0.00 0.02 0.05 0.08 0.30 0.19 0.37 0.49 0.50 0.30 0.48 0.60 0.46 0.27 0.28 0.37 0.32 0.24 0.10 0.11 0.13 0.10 0.07 0.04 0.00
0.00 0.00 0.00 0.00 0.00 0.00 0.00 0.00 0.00 0.00 0.00 0.00 0.00 0.00 0.00 0.00 0.00 0.00 0.00 0.00 0.02 0.05 0.18 0.31 0.26 0.31 0.43 0.49 0.47 0.58 0.52 0.51 0.39 0.47 0.45 0.38 0.33 0.25 0.14 0.13 0.10 0.09 0.05
0.00 0.00 0.00 0.00 0.00 0.00 0.00 0.00 0.00 0.00 0.00 0.00 0.00 0.00 0.00 0.00 0.00 0.00 0.00 0.00 0.00 0.00 0.03 0.21 0.17 0.18 0.35 0.40 0.47 0.52 0.58 0.62 0.71 0.59 0.65 0.76 0.59 0.48 0.39 0.23 0.16 0.16 0.12
0.00 0.00 0.00 0.00 0.00 0.00 0.00 0.00 0.00 0.00 0.00 0.00 0.00 0.00 0.00 0.00 0.00 0.00 0.00 0.00 0.00 0.02 0.04 0.14 0.15 0.17 0.24 0.26 0.46 0.53 0.57 0.62 0.76 0.76 0.71 0.70 0.73 0.55 0.39 0.27 0.19 0.13 0.11
0.00 0.00 0.00 0.00 0.00 0.00 0.00 0.00 0.00 0.00 0.00 0.00 0.00 0.00 0.00 0.00 0.00 0.00 0.00 0.00 0.00 0.02 0.03 0.08 0.15 0.17 0.14 0.26 0.28 0.42 0.49 0.50 0.52 0.48 0.44 0.37 0.39 0.55 0.79 0.86 0.63 0.43 0.17
0.00 0.00 0.00 0.00 0.00 0.00 0.00 0.00 0.00 0.00 0.00 0.00 0.00 0.00 0.00 0.00 0.00 0.00 0.01 0.01 0.01 0.01 0.02 0.03 0.10 0.14 0.14 0.20 0.26 0.29 0.30 0.29 0.33 0.33 0.41 0.43 0.36 0.33 0.33 0.42 0.51 0.48 0.32
0.00 0.00 0.00 0.00 0.00 0.00 0.00 0.00 0.00 0.00 0.00 0.00 0.00 0.00 0.00 0.00 0.00 0.00 0.01 0.02 0.02 0.02 0.03 0.04 0.06 0.08 0.10 0.15 0.25 0.24 0.15 0.16 0.20 0.27 0.21 0.22 0.18 0.18 0.20 0.17 0.14 0.11 0.06
0.00 0.00 0.00 0.00 0.00 0.00 0.00 0.00 0.00 0.00 0.00 0.00 0.00 0.00 0.00 0.01 0.01 0.02 0.02 0.02 0.03 0.03 0.05 0.05 0.06 0.08 0.07 0.08 0.10 0.12 0.15 0.11 0.06 0.06 0.09 0.10 0.11 0.12 0.10 0.11 0.10 0.09 0.04
0.00 0.00 0.00 0.00 0.00 0.00 0.00 0.00 0.00 0.00 0.00 0.00 0.00 0.00 0.00 0.01 0.02 0.03 0.06 0.07 0.05 0.05 0.07 0.10 0.10 0.10 0.10 0.11 0.10 0.12 0.17 0.16 0.10 0.04 0.03 0.06 0.11 0.12 0.11 0.10 0.08 0.07 0.09
0.00 0.00 0.00 0.00 0.00 0.00 0.00 0.00 0.00 0.00 0.00 0.00 0.00 0.00 0.01 0.03 0.07 0.07 0.06 0.08 0.12 0.13 0.15 0.21 0.26 0.25 0.22 0.20 0.19 0.11 0.08 0.08 0.06 0.07 0.08 0.07 0.09 0.08 0.09 0.19 0.19 0.18 0.15
0.00 0.00 0.00 0.00 0.00 0.00 0.00 0.00 0.00 0.00 0.00 0.00 0.00 0.00 0.01 0.03 0.07 0.12 0.13 0.15 0.20 0.26 0.26 0.29 0.28 0.30 0.35 0.28 0.23 0.17 0.09 0.06 0.03 0.05 0.06 0.07 0.09 0.11 0.12 0.16 0.18 0.20 0.21
0.00 0.00 0.00 0.00 0.00 0.00 0.00 0.00 0.00 0.00 0.00 0.00 0.01 0.01 0.02 0.03 0.06 0.14 0.19 0.20 0.25 0.38 0.34 0.39 0.46 0.30 0.24 0.30 0.22 0.23 0.12 0.07 0.04 0.02 0.02 0.03 0.03 0.04 0.06 0.10 0.09 0.06 0.09
0.00 0.00 0.00 0.00 0.00 0.00 0.00 0.00 0.00 0.00 0.00 0.00 0.00 0.01 0.02 0.02 0.05 0.12 0.21 0.27 0.29 0.31 0.35 0.31 0.34 0.36 0.36 0.34 0.38 0.29 0.26 0.21 0.09 0.03 0.01 0.01 0.02 0.03 0.02 0.02 0.02 0.05 0.08
0.00 0.00 0.00 0.00 0.00 0.00 0.00 0.00 0.00 0.00 0.00 0.00 0.00 0.00 0.02 0.02 0.03 0.05 0.07 0.13 0.27 0.34 0.25 0.18 0.16 0.14 0.22 0.29 0.30 0.37 0.28 0.23 0.29 0.16 0.05 0.01 0.01 0.00 0.01 0.01 0.01 0.02 0.06
0.00 0.00 0.00 0.00 0.00 0.00 0.00 0.00 0.00 0.00 0.00 0.00 0.00 0.00 0.00 0.02 0.02 0.03 0.02 0.03 0.06 0.12 0.20 0.21 0.17 0.08 0.09 0.11 0.12 0.16 0.21 0.14 0.05 0.07 0.03 0.00 0.00 0.00 0.00 0.00 0.00 0.00 0.02
0.00 0.00 0.00 0.00 0.00 0.00 0.00 0.00 0.00 0.00 0.00 0.00 0.00 0.00 0.00 0.00 0.00 0.00 0.00 0.00 0.00 0.00 0.01 0.04 0.12 0.13 0.08 0.04 0.02 0.02 0.03 0.07 0.05 0.01 0.00 0.00 0.00 0.00 0.00 0.00 0.00 0.00 0.00
0.00 0.00 0.00 0.00 0.00 0.00 0.00 0.00 0.00 0.00 0.00 0.00 0.00 0.00 0.00 0.00 0.00 0.00 0.00 0.00 0.00 0.00 0.00 0.00 0.00 0.01 0.03 0.05 0.02 0.00 0.00 0.01 0.01 0.01 0.01 0.00 0.00 0.00 0.00 0.00 0.00 0.00 0.00
0.00 0.00 0.00 0.00 0.00 0.00 0.00 0.00 0.00 0.00 0.00 0.00 0.00 0.00 0.00 0.00 0.00 0.00 0.00 0.00 0.00 0.00 0.00 0.00 0.00 0.00 0.00 0.01 0.02 0.01 0.01 0.00 0.00 0.00 0.00 0.01 0.00 0.00 0.00 0.00 0.00 0.00 0.00
0.00 0.00 0.00 0.00 0.00 0.00 0.00 0.00 0.00 0.00 0.00 0.00 0.00 0.00 0.01 0.00 0.00 0.00 0.00 0.00 0.00 0.00 0.00 0.00 0.00 0.00 0.00 0.00 0.00 0.01 0.01 0.01 0.00 0.00 0.00 0.00 0.00 0.00 0.00 0.00 0.00 0.00 0.00
0.00 0.00 0.00 0.00 0.00 0.00 0.00 0.00 0.00 0.00 0.00 0.00 0.00 0.00 0.00 0.00 0.00 0.00 0.00 0.00 0.00 0.00 0.00 0.00 0.00 0.00 0.00 0.00 0.00 0.00 0.00 0.01 0.01 0.01 0.00 0.00 0.00 0.00 0.00 0.00 0.00 0.01 0.00
0.00 0.00 0.00 0.00 0.00 0.00 0.00 0.00 0.00 0.00 0.00 0.00 0.00 0.00 0.00 0.00 0.00 0.00 0.00 0.00 0.01 0.00 0.00 0.00 0.00 0.00 0.00 0.00 0.00 0.00 0.00 0.00 0.00 0.00 0.00 0.00 0.00 0.00 0.00 0.01 0.00 0.00 0.00
0.00 0.00 0.00 0.00 0.00 0.00 0.00 0.00 0.00 0.00 0.00 0.00 0.00 0.00 0.00 0.00 0.00 0.00 0.00 0.00 0.01 0.01 0.01 0.01 0.01 0.00 0.00 0.00 0.00 0.00 0.00 0.00 0.00 0.00 0.00 0.00 0.00 0.00 0.00 0.00 0.00 0.00 0.00
0.00 0.00 0.00 0.00 0.00 0.00 0.00 0.00 0.00 0.00 0.00 0.00 0.00 0.00 0.00 0.00 0.00 0.00 0.00 0.00 0.01 0.02 0.03 0.03 0.01 0.01 0.01 0.01 0.00 0.00 0.00 0.00 0.00 0.00 0.00 0.00 0.00 0.00 0.00 0.00 0.00 0.00 0.00
0.00 0.00 0.00 0.00 0.00 0.00 0.00 0.00 0.00 0.00 0.01 0.00 0.00 0.01 0.01 0.00 0.00 0.00 0.00 0.00 0.00 0.00 0.01 0.01 0.00 0.00 0.01 0.01 0.00 0.00 0.00 0.00 0.00 0.00 0.00 0.00 0.00 0.00 0.00 0.00 0.00 0.00 0.00